カタログに戻る

DELTA 1 R/B

運用中LEO
NORAD 50·ROCKET BODY·🇺🇸 United States

打ち上げ Aug 12, 1960 から Cape Canaveral Space Force Station

Loading…

次のパス (今後24時間)

TLE

最新Source: Space-Track

元期: Sep 14, 2026, 01:32 UTC

1 00050U 60009B   26257.06421044 -.00000128  00000-0 -41225-3 0  9993
2 00050  47.2296 245.8550 0114405 279.9184  78.8708 12.20169627948556

AllMySatでDELTA 1 R/Bをリアルタイム追跡

Download on the App Store